Location: Brachbach
(49.1847°N, 9.7240°E)
Time: 01:00:04
(UTC+00:00)

FENGYUN 3A - Pass Details

Date: 16 August 2024
Orbit: 822 x 834 km, 98.6° (Epoch: 07 September)

Event Time Altitude Azimuth Distance (km) Brightness Sun altitude
Rises 01:17:03 0° 18° (NNE) 3,394 8.2 -22.5°
Reaches altitude 10° 01:19:31 10° 24° (NNE) 2,454 7.2 -22.3°
Maximum altitude 01:24:46 49° 99° (E) 1,068 4.3 -21.9°
Enters shadow 01:27:17 28° 158° (SSE) 1,500 4.7 -21.7°
